Weather History for Redding, CA

Change the Weather History Date:

Monday, July 14, 2014

  Actual Average Record
Temperature  
Mean Temperature 91 °F -  
Max Temperature 111 °F 99 °F 114 °F (1987)
Min Temperature 70 °F 66 °F 59 °F (2000)
Degree Days  
Heating Degree Days 0    
Cooling Degree Days 26    
Growing Degree Days 40 (Base 50)    
Moisture  
Dew Point 51 °F    
Average Humidity 33    
Maximum Humidity 57    
Minimum Humidity 8    
Precipitation  
Precipitation 0.00 in 0.00 in 0.00 in (2014)
Month to date precipitation 0.01 0.04  
Year to date precipitation 14.28 20.90  
Since 1 July precipitation 0.01 0.04  
Sea Level Pressure  
Sea Level Pressure 29.79 in    
Wind  
Wind Speed 5 mph (NE)    
Max Wind Speed 16 mph    
Max Gust Speed 20 mph    
Visibility 10 miles    
Events      
T = Trace of Precipitation, MM = Missing Value Source: NWS Daily Summary

Daily Weather History Graph

Daily Weather History Graph

Search for Another Location

Airport:

Trip Planner

Search our weather history database for the weather conditions in past years. The results will help you decide how hot, cold, wet, or windy it might be!

Date:

Astronomy

Jul. 14, 2014 Rise Set
Actual Time 5:50 AM PDT 8:39 PM PDT
Civil Twilight 5:18 AM PDT 9:11 PM PDT
Nautical Twilight 4:37 AM PDT 9:51 PM PDT
Astronomical Twilight 3:51 AM PDT 10:38 PM PDT
Moon 10:11 PM PDT (7/14) 8:40 AM PDT (7/14)
Length of Visible Light 15h 52m
Length of Day
14h 48m
Waning Gibbous, 92% of the Moon is Illuminated
Jul 14
Waning Gibbous
Jul 18
Last Quarter
Jul 26
New
Aug 3
First Quarter
Aug 10
Full

Hourly Weather History & Observations

Time (PDT) Temp. Heat Index Dew Point Humidity Pressure Visibility Wind Dir Wind Speed Gust Speed Precip Events Conditions
12:53 AM 80.1 °F 80.0 °F 54.0 °F 40% 29.83 in 10.0 mi NNE 4.6 mph - N/A   Clear
1:53 AM 79.0 °F - 54.0 °F 42% 29.83 in 10.0 mi NNE 3.5 mph - N/A   Clear
2:53 AM 75.9 °F - 55.0 °F 48% 29.82 in 10.0 mi Calm Calm - N/A   Clear
3:53 AM 73.0 °F - 55.0 °F 53% 29.82 in 10.0 mi Calm Calm - N/A   Clear
4:53 AM 71.1 °F - 55.0 °F 57% 29.83 in 10.0 mi NNE 3.5 mph - N/A   Clear
5:53 AM 71.1 °F - 55.0 °F 57% 29.83 in 10.0 mi NNE 4.6 mph - N/A   Clear
6:53 AM 73.9 °F - 55.0 °F 52% 29.83 in 10.0 mi NNE 3.5 mph - N/A   Clear
7:53 AM 80.6 °F 80.5 °F 55.4 °F 42% 29.85 in 10.0 mi Calm Calm - N/A   Clear
8:53 AM 90.0 °F 88.8 °F 57.9 °F 34% 29.82 in 10.0 mi NNW 4.6 mph - N/A   Clear
9:53 AM 95.0 °F 93.7 °F 57.0 °F 28% 29.81 in 10.0 mi North 8.1 mph - N/A   Clear
10:53 AM 97.0 °F 95.3 °F 55.9 °F 25% 29.81 in 10.0 mi North 8.1 mph - N/A   Clear
11:53 AM 102.9 °F 100.9 °F 53.1 °F 19% 29.79 in 10.0 mi Calm Calm - N/A   Clear
12:53 PM 105.8 °F - 46.4 °F 14% 29.80 in 10.0 mi Calm Calm - N/A   Clear
1:53 PM 108.0 °F - 42.1 °F 11% 29.77 in 10.0 mi West 8.1 mph - N/A   Clear
2:53 PM 109.4 °F - 41.0 °F 10% 29.77 in 10.0 mi Variable 4.6 mph - N/A   Clear
3:53 PM 109.0 °F - 37.0 °F 9% 29.74 in 10.0 mi SW 3.5 mph - N/A   Clear
4:53 PM 109.9 °F - 36.0 °F 8% 29.73 in 10.0 mi SSE 12.7 mph - N/A   Clear
5:53 PM 107.1 °F - 41.0 °F 11% 29.73 in 10.0 mi SSE 16.1 mph - N/A   Mostly Cloudy
6:53 PM 105.1 °F - 46.9 °F 14% 29.73 in 10.0 mi SSE 12.7 mph - N/A   Clear
7:53 PM 100.0 °F - 48.0 °F 17% 29.75 in 10.0 mi South 12.7 mph - N/A   Clear
8:53 PM 93.9 °F 92.6 °F 57.0 °F 29% 29.77 in 10.0 mi SSE 5.8 mph - N/A   Clear
9:53 PM 93.9 °F 93.2 °F 59.0 °F 31% 29.79 in 10.0 mi SSW 4.6 mph - N/A   Clear
10:53 PM 89.1 °F 88.0 °F 57.9 °F 35% 29.80 in 10.0 mi Calm Calm - N/A   Clear
11:53 PM 84.0 °F 83.8 °F 59.0 °F 43% 29.81 in 10.0 mi NE 3.5 mph - N/A   Clear